Montreal Mirabel, Ontario

8:49 AM EDT on March 30, 2017 (GMT -0400)
Montreal International (Mirabel)

Weather History for CYMX - June, 2013

Change the Weather History Date:

Saturday, June 15, 2013

  Actual Average Record
Temperature  
Mean Temperature 60 °F -  
Max Temperature 73 °F 72 °F 91 °F (2001)
Min Temperature 46 °F 52 °F 46 °F (1997)
Degree Days  
Heating Degree Days 6    
Growing Degree Days 10 (Base 50)    
Moisture  
Dew Point 47 °F    
Average Humidity 59    
Maximum Humidity 87    
Minimum Humidity 38    
Precipitation  
Precipitation 0.00 in - - ()
Sea Level Pressure  
Sea Level Pressure 29.91 in    
Wind  
Wind Speed 6 mph ()    
Max Wind Speed 13 mph    
Max Gust Speed 23 mph    
Averages and records for this station are not official NWS values.
T = Trace of Precipitation, MM = Missing Value Source: Averaged Metar Reports

Daily Weather History Graph

Daily Weather History Graph

Search for Another Location

Airport or City:

Trip Planner

Search our weather history database for the weather conditions in past years. The results will help you decide how hot, cold, wet, or windy it might be!

Date:

Astronomy

Jun. 15, 2013 Rise Set
Actual Time 5:06 AM EDT 8:47 PM EDT
Civil Twilight 4:27 AM EDT 9:25 PM EDT
Nautical Twilight 3:36 AM EDT 10:16 PM EDT
Astronomical Twilight 2:27 AM EDT 11:26 PM EDT
Moon 11:56 AM EDT (6/15) 12:04 AM EDT (6/15)
Length of Visible Light 16h 57m
Length of Day
15h 41m
Waxing Crescent, 39% of the Moon is Illuminated
Jun 15
Waxing Crescent
Jun 16
First Quarter
Jun 23
Full
Jun 30
Last Quarter
Jul 8
New

Hourly Weather History & Observations

Time (EDT) Temp. Windchill Dew Point Humidity Pressure Visibility Wind Dir Wind Speed Gust Speed Precip Events Conditions
12:00 AM 57.2 °F - 41.0 °F 55% 29.91 in 25.0 mi NNW 6.9 mph - N/A   Clear
1:00 AM 53.6 °F - 42.8 °F 67% 29.91 in 25.0 mi NW 3.5 mph - N/A   Clear
2:00 AM 50.0 °F - 42.8 °F 76% 29.93 in 25.0 mi WNW 4.6 mph - N/A   Clear
3:00 AM 48.2 °F - 42.8 °F 82% 29.94 in 25.0 mi WNW 3.5 mph - N/A   Clear
4:00 AM 46.4 °F 44.3 °F 42.8 °F 87% 29.94 in 25.0 mi WNW 4.6 mph - N/A   Clear
5:00 AM 46.4 °F 45.2 °F 42.8 °F 87% 29.94 in 45.0 mi West 3.5 mph - N/A   Partly Cloudy
6:00 AM 46.4 °F - 42.8 °F 87% 29.94 in 45.0 mi West 2.3 mph - N/A   Partly Cloudy
7:00 AM 53.6 °F - 48.2 °F 82% 29.95 in 45.0 mi West 4.6 mph - N/A   Partly Cloudy
8:00 AM 59.0 °F - 46.4 °F 63% 29.96 in 45.0 mi WSW 4.6 mph - N/A   Partly Cloudy
9:00 AM 62.6 °F - 51.8 °F 68% 29.96 in 45.0 mi WSW 5.8 mph - N/A   Partly Cloudy
10:00 AM 66.2 °F - 48.2 °F 52% 29.95 in 45.0 mi SW 9.2 mph 17.3 mph N/A   Partly Cloudy
11:00 AM 69.8 °F - 50.0 °F 49% 29.94 in 45.0 mi WSW 6.9 mph - N/A   Scattered Clouds
12:00 PM 69.8 °F - 50.0 °F 49% 29.93 in 45.0 mi WSW 9.2 mph 21.9 mph N/A   Mostly Cloudy
1:00 PM 71.6 °F - 46.4 °F 41% 29.92 in 45.0 mi WSW 12.7 mph 19.6 mph N/A   Mostly Cloudy
2:00 PM 71.6 °F - 48.2 °F 43% 29.89 in 45.0 mi WSW 8.1 mph 18.4 mph N/A   Mostly Cloudy
3:00 PM 73.4 °F - 46.4 °F 38% 29.88 in 45.0 mi WSW 10.4 mph - N/A   Scattered Clouds
4:00 PM 73.4 °F - 48.2 °F 41% 29.86 in 45.0 mi WSW 9.2 mph 18.4 mph N/A   Mostly Cloudy
5:00 PM 73.4 °F - 48.2 °F 41% 29.86 in 45.0 mi WSW 10.4 mph 23.0 mph N/A   Mostly Cloudy
6:00 PM 73.4 °F - 46.4 °F 38% 29.85 in 45.0 mi SW 10.4 mph 19.6 mph N/A   Scattered Clouds
7:00 PM 71.6 °F - 46.4 °F 41% 29.85 in 45.0 mi West 8.1 mph - N/A   Partly Cloudy
8:00 PM 69.8 °F - 48.2 °F 46% 29.85 in 45.0 mi SW 5.8 mph - N/A   Partly Cloudy
9:00 PM 66.2 °F - 50.0 °F 56% 29.86 in 25.0 mi SW 6.9 mph - N/A   Partly Cloudy
10:00 PM 64.4 °F - 50.0 °F 59% 29.88 in 25.0 mi SW 6.9 mph - N/A   Partly Cloudy
11:00 PM 62.6 °F - 50.0 °F 63% 29.88 in 25.0 mi WSW 5.8 mph - N/A   Scattered Clouds